Regional Weather Roundup
Issued by NWS

Home | Current Version | Previous Version | Graphics & Text | Print | Product List | Glossary On
Versions: 1 2 3 4 5 6 7 8 9 10 11 12 13 14 15 16 17 18 19 20 21 22 23 24 25 26 27 28 29 30 31 32 33 34 35 36 37 38 39 40 41 42 43 44 45 46 47 48 49 50
000
ASUS43 KOAX 262202
RWRNE

WEATHER ROUNDUP FOR NEBRASKA
NATIONAL WEATHER SERVICE OMAHA NE
400 PM CST WED NOV 26 2014

NOTES: SATELLITE DATA IS BEING USED TO AUGMENT CLOUD COVER ABOVE
       12000 FEET.
       "FAIR" INDICATES FEW OR NO CLOUDS BELOW 12,000 FEET WITH NO
       SIGNIFICANT WEATHER AND/OR OBSTRUCTIONS TO VISIBILITY.

  * THESE STATIONS DO NOT REPORT WEATHER SUCH AS RAIN...SNOW OR FOG.

NEZ001>004-019>022-054>056-262300-
NEBRASKA PANHANDLE

CITY           SKY/WX    TMP DP  RH WIND       PRES   REMARKS
SCOTTSBLUFF    LGT SNOW  30  28  92 SW5       30.24R FOG     WCI  25
ALLIANCE       LGT SNOW  30  27  88 SW6       30.22R FOG     WCI  24
CHADRON        CLOUDY    51  24  34 W3        30.24S
SIDNEY         LGT SNOW  30  25  81 CALM      30.24S
$$

NEZ057>060-069>072-079>082-262300-
SOUTHWEST NEBRASKA

CITY           SKY/WX    TMP DP  RH WIND       PRES   REMARKS
NORTH PLATTE   CLOUDY    33  18  53 NW7       30.29R WCI  27
IMPERIAL       LGT SNOW  32  26  78 W5        30.28S WCI  27
LEXINGTON      CLOUDY    33  19  56 N9        30.31R WCI  26
MCCOOK         CLOUDY    37  19  48 NW13      30.30R WCI  29
$$

NEZ005>010-023>029-035>040-094-262300-
NORTH CENTRAL NEBRASKA

CITY           SKY/WX    TMP DP  RH WIND       PRES   REMARKS
VALENTINE      CLOUDY    28  17  63 NW7       30.30R WCI  21
AINSWORTH      CLOUDY    26  18  72 NW7       30.30R WCI  18
BROKEN BOW     CLOUDY    30  18  60 N14       30.29R WCI  19
ORD            CLOUDY    28  17  63 N15       30.30R WCI  16
$$

NEZ041-046>049-061>064-073>077-083>087-262300-
SOUTH CENTRAL NEBRASKA

CITY           SKY/WX    TMP DP  RH WIND       PRES   REMARKS
GRAND ISLAND   CLOUDY    29  18  63 N16       30.31R WCI  17
AURORA         MOCLDY    31  19  61 N16G25    30.30R WCI  20
HASTINGS       CLOUDY    30  18  60 N20       30.29R WCI  17
KEARNEY *      PTSUNNY   32  16  51 NW16      30.30S WCI  21
YORK           MOCLDY    28  21  74 N12       30.29R WCI  18
$$

NEZ011>018-030>034-042>045-262300-
NORTHEAST NEBRASKA

CITY           SKY/WX    TMP DP  RH WIND       PRES   REMARKS
NORFOLK        CLOUDY    25  17  72 N20G29    30.30R WCI  11
BLAIR          CLOUDY    28  20  72 N20G30    30.23R WCI  15
COLUMBUS *     CLOUDY    27  16  63 NW23      30.31R WCI  12
TEKAMAH        CLOUDY    28  20  71 N24       30.27R WCI  14
$$

NEZ050>053-065>068-078-088>093-262300-
SOUTHEAST NEBRASKA

CITY           SKY/WX    TMP DP  RH WIND       PRES   REMARKS
LINCOLN        CLOUDY    28  18  66 N24G30    30.29R WCI  14
OMAHA EPPLEY   CLOUDY    28  20  71 N29G37    30.26R WCI  12
FALLS CITY     CLOUDY    31  22  69 NW22G31   30.20R WCI  18
NEBRASKA CITY  CLOUDY    28  20  71 N22G30    30.21R WCI  15
PLATTSMOUTH    CLOUDY    28  22  76 NW18G24   30.22R WCI  15
$$

NEZ044-045-051>053-067-262300-
OMAHA AREA

CITY           SKY/WX    TMP DP  RH WIND       PRES   REMARKS
OMAHA EPPLEY   CLOUDY    28  20  71 N29G37    30.26R WCI  12
BLAIR          CLOUDY    28  20  72 N20G30    30.23R WCI  15
OFFUTT AFB     CLOUDY    29  20  71 N16G23    30.24R WCI  17
PLATTSMOUTH    CLOUDY    28  22  76 NW18G24   30.22R WCI  15
WAHOO          CLOUDY    26  19  75 N23G36    30.27R WCI  11
$$


USA.gov is the U.S. government's official web portal to all federal, state and local government web resources and services.